Showing default

KUIPER-00440, 68942

Orbit data source: Space-Track

KUIPER-00440, 68942 is a payload satellite owned by Kuiper Systems (US) in LEO that was launched on Thu, 30 Apr 2026 UTC via an ARIANE 64 launch vehicle from the French Guiana (FRGUI). Payload-class satellites include a variety of spacecraft equipped with specific instruments for various scientific and technological missions. These include communications satellites like Starlink; space stations such as the ISS; scientific satellites like the Hubble; Earth observation satellites from companies like Planet Labs, Umbra, and HawkEye 360; GPS; miniature CubeSats for education and research; and military/defense satellites.

Loading next visibility...
Identifier
68942, 2026-098Z
Orbit
LEO
Country
Flag of USUS
Related business
Manufacturer
Kuiper Systems
Mission
Operational spacecraft
Bus & Motor
KUIPER, Unknown motor
Mass
~490 kg wet, ~490 kg dry
Launch date (UTC)
2026-04-30 (1 month ago)
Launch vehicle
ARIANE 64
Launch site
French Guiana (FRGUI)
Object type
Payload
Rocket body
Debris
Shape & HBR
Unknown
Radar Cross Section
Large (>1 m²)

Expand to show TLE details & history
Last TLE update: 3 days ago

TLE from 3 days ago
0 KUIPER-00440
1 68942U 26098Z   26155.08412910  .00024429  00000-0  73220-3 0  9996
2 68942  51.8764 130.9454 0004298 106.1610 253.9849 15.34348792  5333
Epoch: 2026-06-04T02:01Z
TLE epoch observation values (Epoch: 2026-06-04T02:01:08.754Z)
Latitude
0.00001°
Longitude
-151.87454°
Altitude
464.43 km
Speed
7.635 km/s
True Right ascension
08h 43m 46s
True Declination
0° 00' 00"
Sunlit
Object was in daylight at epoch
Visualization orbit readout
Latitude
Unknown
Longitude
Unknown
Altitude
Unknown
Speed
Unknown
Apparent Right ascension
Unknown
Apparent Declination
Unknown
Sunlit
N/A
Visualization observer readout
Local Sidereal Time
02:16:43
Azimuth
Unknown
Elevation
Unknown
Doppler factor
Unknown
Orbital elements
Apogee altitude
466.262 km
Perigee altitude
460.381 km
Semi-major axis
6,841.458 km
Eccentricity
0.00043
Inclination
51.8764°
RAAN
130.9454°
Arg. of periapsis
106.161°
True anomaly
253.93757°
Mean anomaly
253.9849°
Eccentric anomaly
253.96123°
Mean motion
3.83548 °/min
Orbital period
93.86 mins
BSTAR
0.0007322
Loading maneuver chart data...
Computing Atmospheric mass density...
Loading historical data...
Loading historical data...
Loading historical data...
Loading historical data...
Loading historical data...
Loading historical data...
Loading historical data...

Documentation

Showing up to 5 results
|